Weather History for Fort Worth, TX

Change the Weather History Date:

Tuesday, October 30, 2012

  Actual Average Record
Temperature  
Mean Temperature 58 °F -  
Max Temperature 77 °F 70 °F 84 °F (2003)
Min Temperature 42 °F 51 °F 42 °F (2012)
Degree Days  
Heating Degree Days 6    
Growing Degree Days 8 (Base 50)    
Moisture  
Dew Point 40 °F    
Average Humidity 50    
Maximum Humidity 79    
Minimum Humidity 30    
Precipitation  
Precipitation 0.00 in - - ()
Sea Level Pressure  
Sea Level Pressure 30.02 in    
Wind  
Wind Speed 3 mph (SSW)    
Max Wind Speed 9 mph    
Max Gust Speed -    
Visibility 10 miles    
Events      
Averages and records for this station are not official NWS values.
T = Trace of Precipitation, MM = Missing Value Source: NWS Daily Summary

Daily Weather History Graph

Daily Weather History Graph

Search for Another Location

Airport:

Trip Planner

Search our weather history database for the weather conditions in past years. The results will help you decide how hot, cold, wet, or windy it might be!

Date:

Astronomy

Oct. 30, 2012 Rise Set
Actual Time 7:45 AM CDT 6:39 PM CDT
Civil Twilight 7:20 AM CDT 7:05 PM CDT
Nautical Twilight 6:51 AM CDT 7:34 PM CDT
Astronomical Twilight 6:22 AM CDT 8:02 PM CDT
Moon 7:14 PM CDT (10/30) 8:29 AM CDT (10/30)
Length of Visible Light 11h 44m
Length of Day
10h 53m
Full, 99% of the Moon is Illuminated
Oct 30
Full
Nov 6
Last Quarter
Nov 13
New
Nov 20
First Quarter
Nov 28
Full

Hourly Weather History & Observations

Time (CDT) Temp. Windchill Dew Point Humidity Pressure Visibility Wind Dir Wind Speed Gust Speed Precip Events Conditions
12:53 AM 48.9 °F - 35.1 °F 59% 30.12 in 10.0 mi Calm Calm - N/A   Clear
1:53 AM 50.0 °F - 34.0 °F 54% 30.10 in 10.0 mi Calm Calm - N/A   Clear
2:53 AM 48.9 °F - 34.0 °F 56% 30.09 in 10.0 mi Calm Calm - N/A   Clear
3:53 AM 46.9 °F - 34.0 °F 61% 30.08 in 10.0 mi Calm Calm - N/A   Clear
4:53 AM 48.0 °F - 35.1 °F 61% 30.07 in 10.0 mi Calm Calm - N/A   Clear
5:53 AM 48.0 °F - 36.0 °F 63% 30.08 in 10.0 mi Calm Calm - N/A   Clear
6:53 AM 46.9 °F - 35.1 °F 63% 30.08 in 10.0 mi Calm Calm - N/A   Clear
7:53 AM 42.1 °F 38.4 °F 36.0 °F 79% 30.06 in 8.0 mi SSE 5.8 mph - N/A   Clear
8:53 AM 48.9 °F - 39.9 °F 71% 30.08 in 8.0 mi Calm Calm - N/A   Clear
9:53 AM 55.0 °F - 39.0 °F 55% 30.08 in 10.0 mi SSW 4.6 mph - N/A   Clear
10:53 AM 62.1 °F - 39.9 °F 44% 30.06 in 10.0 mi SSW 5.8 mph - N/A   Clear
11:53 AM 69.1 °F - 41.0 °F 36% 30.06 in 10.0 mi Variable 5.8 mph - N/A   Clear
12:53 PM 71.1 °F - 41.0 °F 34% 30.04 in 10.0 mi WSW 8.1 mph - N/A   Clear
1:53 PM 73.0 °F - 42.1 °F 33% 30.00 in 10.0 mi WSW 8.1 mph - N/A   Clear
2:53 PM 75.0 °F - 42.1 °F 31% 29.96 in 10.0 mi WSW 9.2 mph - N/A   Clear
3:53 PM 75.9 °F - 42.1 °F 30% 29.94 in 10.0 mi WSW 3.5 mph - N/A   Clear
4:53 PM 75.9 °F - 42.1 °F 30% 29.93 in 10.0 mi Variable 6.9 mph - N/A   Clear
5:53 PM 73.9 °F - 43.0 °F 33% 29.93 in 10.0 mi SW 6.9 mph - N/A   Clear
6:53 PM 69.1 °F - 43.0 °F 39% 29.95 in 10.0 mi South 4.6 mph - N/A   Clear
7:53 PM 64.0 °F - 45.0 °F 50% 29.95 in 10.0 mi SSW 4.6 mph - N/A   Clear
8:53 PM 63.0 °F - 45.0 °F 52% 29.95 in 10.0 mi SSW 3.5 mph - N/A   Clear
9:53 PM 61.0 °F - 45.0 °F 56% 29.95 in 10.0 mi SSW 3.5 mph - N/A   Clear
10:53 PM 62.1 °F - 43.0 °F 50% 29.95 in 10.0 mi SSW 9.2 mph - N/A   Clear
11:53 PM 60.1 °F - 45.0 °F 57% 29.94 in 10.0 mi SSW 6.9 mph - N/A   Clear